Frankfort, MI

12:18 AM EST on December 10, 2019 (GMT -0500)
Frankfort

Weather History for KFKS - October, 2019

Change the Weather History Date:

Wednesday, October 9, 2019

  Actual Average (WUND) Record (WUND)
Temperature  
Mean Temperature 59 °F -  
Max Temperature 73 °F - - (-1)
Min Temperature 45 °F - - (-1)
Degree Days  
Heating Degree Days 6    
Growing Degree Days 9 (Base 50)    
Moisture  
Dew Point 44 °F    
Average Humidity 60    
Maximum Humidity 85    
Minimum Humidity 31    
Precipitation  
Precipitation 0.00 in - - ()
Sea Level Pressure  
Sea Level Pressure 30.18 in    
Wind  
Wind Speed 3 mph (SE)    
Max Wind Speed 10 mph    
Max Gust Speed -    
Visibility 10 miles    
Events      
Averages and records for this station are not official NWS values.
T = Trace of Precipitation, MM = Missing Value Source: NWS Daily Summary

Daily Weather History Graph

Daily Weather History Graph

Search for Another Location

Airport or City:

Astronomy

Oct. 09, 2019 Rise Set
Actual Time 7:52 AM EDT 7:11 PM EDT
Civil Twilight 7:23 AM EDT 7:40 PM EDT
Nautical Twilight 6:49 AM EDT 8:14 PM EDT
Astronomical Twilight 6:15 AM EDT 8:47 PM EDT
Moon 5:55 PM EDT (10/9) 3:24 AM EDT (10/9)
Length of Visible Light 12h 17m
Length of Day
11h 18m
Waxing Gibbous, 85% of the Moon is Illuminated
Oct 9
Waxing Gibbous
Oct 13
Full
Oct 21
Last Quarter
Oct 27
New
Nov 4
First Quarter

Hourly Weather History & Observations

Time (EDT) Temp. Dew Point Humidity Pressure Visibility Wind Dir Wind Speed Gust Speed Precip Events Conditions
12:17 AM 47.8 °F 41.9 °F 80% 30.17 in 10.0 mi Calm Calm - N/A   Clear
12:35 AM 45.9 °F 40.5 °F 81% 30.17 in 10.0 mi Calm Calm - N/A   Clear
12:36 AM 46.0 °F 40.6 °F 81% 30.17 in 10.0 mi Calm Calm - N/A   Clear
12:55 AM 48.4 °F 41.2 °F 76% 30.17 in 10.0 mi ESE 3.5 mph - N/A   Clear
12:56 AM 49.1 °F 41.4 °F 75% 30.17 in 10.0 mi SE 4.6 mph - N/A   Clear
1:15 AM 54.0 °F 40.3 °F 60% 30.18 in 10.0 mi SE 4.6 mph - N/A   Clear
1:20 AM 53.8 °F 40.3 °F 60% 30.17 in 10.0 mi SE 4.6 mph - N/A   Clear
1:37 AM 53.8 °F 40.3 °F 60% 30.18 in 10.0 mi SE 4.6 mph - N/A   Clear
1:56 AM 53.8 °F 40.5 °F 61% 30.18 in 10.0 mi SE 5.8 mph - N/A   Clear
2:15 AM 54.0 °F 40.5 °F 60% 30.18 in 10.0 mi SE 5.8 mph - N/A   Clear
2:16 AM 54.0 °F 40.5 °F 60% 30.18 in 10.0 mi SE 5.8 mph - N/A   Clear
2:35 AM 54.1 °F 40.6 °F 60% 30.18 in 10.0 mi SE 3.5 mph - N/A   Clear
2:36 AM 54.0 °F 40.8 °F 61% 30.18 in 10.0 mi ESE 3.5 mph - N/A   Clear
2:59 AM 54.1 °F 41.0 °F 61% 30.18 in 10.0 mi ESE 3.5 mph - N/A   Clear
3:17 AM 54.5 °F 41.4 °F 61% 30.18 in 10.0 mi Calm Calm - N/A   Clear
3:35 AM 54.7 °F 41.5 °F 61% 30.18 in 10.0 mi ESE 3.5 mph - N/A   Clear
3:36 AM 54.7 °F 41.7 °F 62% 30.18 in 10.0 mi ESE 3.5 mph - N/A   Clear
3:55 AM 55.4 °F 41.9 °F 60% 30.18 in 10.0 mi ESE 4.6 mph - N/A   Clear
3:56 AM 55.4 °F 41.9 °F 60% 30.18 in 10.0 mi East 3.5 mph - N/A   Clear
4:15 AM 55.8 °F 41.9 °F 60% 30.18 in 10.0 mi ESE 4.6 mph - N/A   Clear
4:20 AM 55.9 °F 41.9 °F 59% 30.18 in 10.0 mi ESE 3.5 mph - N/A   Clear
4:38 AM 55.8 °F 41.9 °F 60% 30.18 in 10.0 mi East 3.5 mph - N/A   Clear
4:56 AM 55.9 °F 41.7 °F 59% 30.19 in 10.0 mi East 3.5 mph - N/A   Clear
5:15 AM 55.9 °F 41.5 °F 58% 30.19 in 10.0 mi East 3.5 mph - N/A   Clear
5:16 AM 55.9 °F 41.5 °F 58% 30.19 in 10.0 mi East 3.5 mph - N/A   Clear
5:35 AM 55.4 °F 41.4 °F 59% 30.20 in 10.0 mi Calm Calm - N/A   Clear
5:36 AM 55.4 °F 41.4 °F 59% 30.20 in 10.0 mi Calm Calm - N/A   Clear
5:59 AM 55.4 °F 41.7 °F 60% 30.20 in 10.0 mi Calm Calm - N/A   Clear
6:17 AM 55.4 °F 42.3 °F 61% 30.20 in 10.0 mi East 3.5 mph - N/A   Clear
6:35 AM 55.4 °F 43.0 °F 63% 30.21 in 10.0 mi Calm Calm - N/A   Clear
6:36 AM 55.2 °F 43.0 °F 63% 30.21 in 10.0 mi Calm Calm - N/A   Clear
6:55 AM 54.9 °F 43.5 °F 66% 30.21 in 10.0 mi Calm Calm - N/A   Clear
6:56 AM 54.9 °F 43.5 °F 66% 30.21 in 10.0 mi Calm Calm - N/A   Clear
7:15 AM 54.5 °F 43.7 °F 67% 30.21 in 10.0 mi ESE 3.5 mph - N/A   Clear
7:20 AM 54.5 °F 43.9 °F 67% 30.21 in 10.0 mi East 3.5 mph - N/A   Clear
7:38 AM 54.5 °F 44.2 °F 68% 30.22 in 10.0 mi East 3.5 mph - N/A   Clear
7:56 AM 54.5 °F 44.6 °F 69% 30.22 in 10.0 mi Calm Calm - N/A   Clear
8:15 AM 54.7 °F 45.3 °F 71% 30.22 in 10.0 mi ESE 3.5 mph - N/A   Clear
8:35 AM 55.4 °F 45.7 °F 70% 30.22 in 10.0 mi ESE 3.5 mph - N/A   Clear
8:36 AM 55.4 °F 45.7 °F 70% 30.22 in 10.0 mi SE 3.5 mph - N/A   Clear
8:59 AM 56.3 °F 46.4 °F 69% 30.22 in 10.0 mi ESE 4.6 mph - N/A   Clear
9:17 AM 57.7 °F 46.6 °F 66% 30.22 in 10.0 mi SE 3.5 mph - N/A   Clear
9:35 AM 59.0 °F 47.1 °F 65% 30.23 in 10.0 mi SE 4.6 mph - N/A   Clear
9:55 AM 60.8 °F 47.7 °F 62% 30.22 in 10.0 mi SE 6.9 mph - N/A   Clear
9:56 AM 60.8 °F 47.7 °F 62% 30.22 in 10.0 mi SE 5.8 mph - N/A   Clear
10:15 AM 62.2 °F 47.3 °F 58% 30.22 in 10.0 mi SE 6.9 mph - N/A   Clear
10:38 AM 63.9 °F 46.8 °F 54% 30.22 in 10.0 mi SE 5.8 mph - N/A   Clear
10:56 AM 64.9 °F 45.9 °F 50% 30.22 in 10.0 mi SE 8.1 mph - N/A   Clear
11:15 AM 66.2 °F 45.7 °F 48% 30.22 in 10.0 mi SE 6.9 mph - N/A   Clear
11:16 AM 66.2 °F 45.7 °F 48% 30.22 in 10.0 mi SE 8.1 mph - N/A   Clear
11:35 AM 67.8 °F 45.7 °F 45% 30.22 in 10.0 mi ESE 5.8 mph - N/A   Clear
11:36 AM 67.6 °F 45.5 °F 45% 30.22 in 10.0 mi ESE 5.8 mph - N/A   Clear
11:59 AM 68.7 °F 45.5 °F 43% 30.21 in 10.0 mi SE 9.2 mph - N/A   Clear
12:17 PM 69.8 °F 45.0 °F 41% 30.21 in 10.0 mi SSE 8.1 mph - N/A   Clear
12:35 PM 70.5 °F 43.2 °F 37% 30.20 in 10.0 mi SE 10.4 mph - N/A   Clear
12:55 PM 71.1 °F 42.1 °F 35% 30.20 in 10.0 mi SE 9.2 mph - N/A   Clear
12:56 PM 71.2 °F 42.1 °F 35% 30.20 in 10.0 mi SSE 9.2 mph - N/A   Clear
1:15 PM 72.0 °F 41.7 °F 34% 30.20 in 10.0 mi SE 10.4 mph - N/A   Clear
1:20 PM 71.6 °F 41.5 °F 34% 30.20 in 10.0 mi SSE 9.2 mph - N/A   Clear
1:38 PM 71.8 °F 39.7 °F 31% 30.19 in 10.0 mi ESE 9.2 mph - N/A   Clear
1:56 PM 72.3 °F 39.7 °F 31% 30.18 in 10.0 mi SE 8.1 mph - N/A   Clear
2:15 PM 72.3 °F 41.0 °F 32% 30.18 in 10.0 mi SE 8.1 mph - N/A   Clear
2:16 PM 72.1 °F 41.0 °F 32% 30.18 in 10.0 mi SE 10.4 mph - N/A   Clear
2:35 PM 72.7 °F 42.1 °F 33% 30.18 in 10.0 mi SSE 9.2 mph - N/A   Clear
2:59 PM 73.0 °F 43.0 °F 34% 30.17 in 10.0 mi South 8.1 mph - N/A   Clear
3:17 PM 72.3 °F 42.3 °F 34% 30.16 in 10.0 mi SSE 10.4 mph - N/A   Clear
3:35 PM 72.7 °F 43.2 °F 35% 30.16 in 10.0 mi Calm Calm - N/A   Clear
3:36 PM 72.7 °F 44.4 °F 36% 30.16 in 10.0 mi South 3.5 mph - N/A   Clear
3:55 PM 71.2 °F 48.4 °F 44% 30.15 in 10.0 mi SW 8.1 mph - N/A   Clear
4:15 PM 69.6 °F 48.2 °F 46% 30.15 in 10.0 mi WSW 5.8 mph - N/A   Clear
4:38 PM 70.0 °F 46.8 °F 43% 30.15 in 10.0 mi SW 4.6 mph - N/A   Clear
4:56 PM 69.8 °F 45.7 °F 42% 30.14 in 10.0 mi Calm Calm - N/A   Clear
5:15 PM 69.4 °F 45.7 °F 42% 30.14 in 10.0 mi SW 3.5 mph - N/A   Clear
5:35 PM 68.9 °F 46.9 °F 45% 30.14 in 10.0 mi West 3.5 mph - N/A   Clear
5:59 PM 68.0 °F 47.1 °F 47% 30.14 in 10.0 mi West 3.5 mph - N/A   Clear
6:17 PM 66.6 °F 48.2 °F 52% 30.14 in 10.0 mi NW 3.5 mph - N/A   Clear
6:35 PM 65.3 °F 48.9 °F 55% 30.14 in 10.0 mi Calm Calm - N/A   Clear
6:55 PM 61.5 °F 50.4 °F 67% 30.14 in 10.0 mi Calm Calm - N/A   Clear
7:15 PM 59.5 °F 50.4 °F 72% 30.15 in 10.0 mi Calm Calm - N/A   Clear
7:20 PM 59.0 °F 50.4 °F 73% 30.15 in 10.0 mi Calm Calm - N/A   Clear
7:38 PM 57.4 °F 49.8 °F 76% 30.16 in 10.0 mi Calm Calm - N/A   Clear
7:56 PM 56.1 °F 48.9 °F 77% 30.16 in 10.0 mi Calm Calm - N/A   Clear
8:15 PM 55.2 °F 49.3 °F 80% 30.16 in 10.0 mi Calm Calm - N/A   Clear
8:35 PM 53.6 °F 47.7 °F 80% 30.17 in 10.0 mi Calm Calm - N/A   Clear
8:36 PM 53.4 °F 47.3 °F 80% 30.17 in 10.0 mi Calm Calm - N/A   Clear
8:59 PM 52.9 °F 47.1 °F 81% 30.17 in 10.0 mi Calm Calm - N/A   Clear
9:17 PM 52.7 °F 47.1 °F 81% 30.18 in 10.0 mi Calm Calm - N/A   Clear
9:35 PM 52.0 °F 46.4 °F 81% 30.18 in 10.0 mi Calm Calm - N/A   Clear
9:55 PM 51.4 °F 46.4 °F 83% 30.18 in 10.0 mi Calm Calm - N/A   Clear
9:56 PM 51.4 °F 46.4 °F 83% 30.18 in 10.0 mi Calm Calm - N/A   Clear
10:15 PM 49.8 °F 45.0 °F 83% 30.18 in 10.0 mi Calm Calm - N/A   Clear
10:20 PM 50.7 °F 46.2 °F 85% 30.17 in 10.0 mi Calm Calm - N/A   Clear
10:56 PM 55.2 °F 47.7 °F 76% 30.18 in 10.0 mi Calm Calm - N/A   Clear
11:15 PM 55.8 °F 47.3 °F 73% 30.17 in 10.0 mi SSE 3.5 mph - N/A   Clear
11:16 PM 55.8 °F 47.3 °F 73% 30.17 in 10.0 mi SE 3.5 mph - N/A   Clear
11:35 PM 56.3 °F 47.3 °F 72% 30.17 in 10.0 mi SSE 3.5 mph - N/A   Clear
11:36 PM 56.3 °F 47.3 °F 72% 30.17 in 10.0 mi SSE 3.5 mph - N/A   Clear
11:59 PM 55.4 °F 47.3 °F 74% 30.18 in 10.0 mi Calm Calm - N/A   Clear